P 527 years

From 839 observations 2007 Mar. 13-May 29, mean residual 0".58.



NAKANO

         **** Don't distribute anyone except personal use only ****

                (C) Copyright 2007 OAA/ComputingSection

write mail from CFAD0::NAKANO on 2007-06-06 06:36:40(JST).

 



    C/2007 E1 (Garradd)

T 2007 May 23.79860 TT                                  Nakano

q   1.2860459            (2000.0)            P               Q

z  +0.0147733      Peri.    7.07130     -0.83653993     +0.54620853

 +/-0.0001370      Node   153.82068     +0.49778955     +0.72480475

e   0.9810008      Incl.  174.39435     +0.22892468     +0.41989798

P 557 years

From 563 observations 2007 Mar. 13-Apr. 28.



NAKANO

         **** Don't distribute anyone except personal use only ****

                (C) Copyright 2007 OAA/ComputingSection

write mail from CFAD0::NAKANO on 2007-05-04 04:01:44(JST).

 ◎C/2007 E1の軌道と予報位置

 彗星は,周期が500年ほどの長周期彗星でした.彗星は,現在,予報光度より1等

級ほど明るく観測されています.CCD全光度は3月25日に13.5等(門田健一;上尾),

28日に13.6等,30日に13.0等(洲本),4月4日に12.0等,9日に11.9等に11.9等

(門田)と観測されています.眼視光度では,さらに2等級ほど明るいようです.



    C/2007 E1 (Garradd)

T 2007 May 23.85120 TT                                  Nakano

q   1.2857506            (2000.0)            P               Q

z  +0.0158532      Peri.    7.12096     -0.83616289     +0.54678645

 +/-0.0005978      Node   153.83078     +0.49828185     +0.72445705

e   0.9796168      Incl.  174.39382     +0.22923094     +0.41974584

P 501 years

From 179 observations 2007 Mar. 13-Apr. 9.



2007/        α  (2000) δ      △      r    Daily motion  Elong. Phase    m1   天文薄明終了時

 21h JST    h  m       。  ,        AU      AU      ,     。     。      。      等     h。    A 。 

Apr. 10   10 17.56  +02 24.8    0.545   1.438   198.1/298   134.7   29.7   11.8   +53.4  330.8

     11   10 05.91  +03 58.5    0.561   1.432   185.5/298   130.6   32.1   11.8   +56.3  336.6

     12   09 54.96  +05 25.9    0.579   1.425   173.0/298   126.6   34.4   11.9   +58.9  343.0

     13   09 44.72  +06 47.0    0.599   1.419   160.7/298   122.8   36.4   11.9   +60.9  349.9

     14   09 35.15  +08 01.7    0.620   1.413   149.0/298   119.2   38.3   12.0   +62.5  357.2

     15   09 26.24  +09 10.4    0.642   1.407   137.8/297   115.8   39.9   12.0   +63.6    4.9

     16   09 17.95  +10 13.5    0.666   1.401   127.4/297   112.6   41.4   12.1   +64.2   12.6

     17   09 10.24  +11 11.1    0.690   1.395   117.7/297   109.5   42.7   12.1   +64.4   20.1

     18   09 03.08  +12 03.9    0.715   1.390   108.7/297   106.6   43.8   12.2   +64.3   27.3

     19   08 56.43  +12 52.2    0.742   1.384   100.4/296   103.9   44.8   12.3   +63.8   34.0

     20   08 50.26  +13 36.4    0.768   1.379    92.9/296   101.3   45.6   12.3   +63.0   40.1

     21   08 44.51  +14 16.9    0.796   1.373    85.9/296    98.8   46.3   12.4   +62.1   45.6

     22   08 39.18  +14 54.0    0.823   1.368    79.6/296    96.4   46.9   12.4   +61.0   50.6

     23   08 34.21  +15 28.1    0.852   1.363    73.8/295    94.1   47.4   12.5   +59.8   55.0

     24   08 29.58  +15 59.4    0.880   1.359    68.5/295    91.9   47.7   12.6   +58.5   58.9

     25   08 25.27  +16 28.3    0.909   1.354    63.6/295    89.8   48.0   12.6   +57.2   62.4

     26   08 21.25  +16 54.9    0.938   1.349    59.2/295    87.8   48.2   12.7   +55.8   65.6

     27   08 17.49  +17 19.5    0.967   1.345    55.2/295    85.9   48.3   12.7   +54.4   68.5

     28   08 13.98  +17 42.4    0.996   1.341    51.5/294    84.0   48.3   12.8   +52.9   71.1

     29   08 10.70  +18 03.5    1.026   1.336    48.1/294    82.2   48.3   12.8   +51.5   73.4

     30   08 07.62  +18 23.2    1.055   1.332    44.9/294    80.4   48.2   12.9   +50.1   75.6

May   1   08 04.73  +18 41.5    1.085   1.329    42.1/294    78.7   48.0   12.9   +48.7   77.6

      2   08 02.03  +18 58.6    1.114   1.325    39.4/294    77.1   47.8   13.0   +47.3   79.4

      3   07 59.48  +19 14.6    1.144   1.321    37.0/294    75.5   47.6   13.0   +45.9   81.1

      4   07 57.09  +19 29.6    1.173   1.318    34.8/294    73.9   47.3   13.0   +44.5   82.8

      5   07 54.84  +19 43.7    1.203   1.315    32.7/294    72.4   47.0   13.1   +43.1   84.3

      6   07 52.72  +19 56.8    1.232   1.312    30.8/294    70.9   46.6   13.1   +41.8   85.7

      7   07 50.72  +20 09.3    1.261   1.309    29.0/294    69.4   46.2   13.2   +40.4   87.1

      8   07 48.83  +20 21.0    1.290   1.306    27.4/294    68.0   45.7   13.2   +39.1   88.3

      9   07 47.05  +20 32.0    1.319   1.304    25.8/294    66.5   45.3   13.3   +37.8   89.6

     10   07 45.37  +20 42.5    1.348   1.301    24.4/294    65.2   44.8   13.3   +36.5   90.7

     11   07 43.77  +20 52.4    1.377   1.299    23.1/294    63.8   44.2   13.3   +35.2   91.9

     12   07 42.27  +21 01.7    1.405   1.297    21.9/294    62.5   43.7   13.4   +33.9   93.0

     13   07 40.84  +21 10.6    1.433   1.295    20.7/294    61.1   43.1   13.4   +32.6   94.0

     14   07 39.49  +21 19.1    1.461   1.293    19.6/294    59.8   42.5   13.4   +31.4   95.0

     15   07 38.20  +21 27.2    1.489   1.292    18.6/294    58.6   41.9   13.5   +30.2   96.0

     16   07 36.98  +21 34.8    1.517   1.290    17.7/295    57.3   41.2   13.5   +28.9   97.0

     17   07 35.83  +21 42.2    1.544   1.289    16.8/295    56.0   40.6   13.5   +27.7   97.9

     18   07 34.73  +21 49.2    1.571   1.288    16.0/295    54.8   39.9   13.6   +26.6   98.9

     19   07 33.69  +21 55.9    1.598   1.287    15.2/295    53.6   39.2   13.6   +25.4   99.7

     20   07 32.69  +22 02.3    1.624   1.287    14.5/295    52.4   38.5   13.6   +24.2  100.6

     21   07 31.75  +22 08.4    1.650   1.286    13.8/295    51.2   37.8   13.7   +23.1  101.5

     22   07 30.84  +22 14.3    1.676   1.286    13.2/296    50.0   37.1   13.7   +21.9  102.3

     23   07 29.99  +22 20.0    1.702   1.286    12.6/296    48.8   36.4   13.7   +20.8  103.2

     24   07 29.17  +22 25.5    1.727   1.286    12.0/296    47.7   35.6   13.8   +19.7  104.0

     25   07 28.39  +22 30.7    1.752   1.286    11.5/296    46.5   34.9   13.8   +18.6  104.8

     26   07 27.64  +22 35.8    1.777   1.286    11.0/296    45.4   34.1   13.8   +17.5  105.6

     27   07 26.93  +22 40.7    1.801   1.287    10.5/297    44.2   33.3   13.9   +16.5  106.4

     28   07 26.25  +22 45.4    1.825   1.288    10.1/297    43.1   32.5   13.9   +15.4  107.2

     29   07 25.60  +22 50.0    1.849   1.289     9.7/297    42.0   31.8   13.9   +14.4  108.0

     30   07 24.97  +22 54.4    1.872   1.290     9.3/298    40.9   31.0   14.0   +13.3  108.8

     31   07 24.38  +22 58.7    1.895   1.291     8.9/298    39.8   30.2   14.0   +12.3  109.6

June  1   07 23.81  +23 02.9    1.918   1.292     8.5/298    38.7   29.4   14.0   +11.3  110.3

                    m1 = 11.5 + 5 log △ + 10.0 log r

NAKANO

         **** Don't distribute anyone except personal use only ****

                (C) Copyright 2007 OAA/ComputingSection

write mail from CFAD0::NAKANO on 2007-04-11 02:29:24(JST).



 その後の上尾の門田健一氏による彗星のCCD全光度は,3月17日に14.3等,

18日に14.2等であった.彗星は,しだいに明るくなってきている.軌道改良に

使用した最終観測は,美星スペースガードセンターの 1.0-m f/3.0反射を使用

して浅見・浦川両氏が行なったもの.

 なお,彗星は,位置予報にあるとおり,4月上旬に地球に0.49 AUまで接近し,

12等級まで明るくなる.彗星が黄道面に近い逆行軌道を動くため,空を大きく

動き,その頃,日々運動が250'(約4o.2)となる.

 

    C/2007 E1 (Garradd)

T 2007 May 23.10131 TT                                  Nakano

q   1.2897344            (2000.0)            P               Q

                   Peri.    6.42496     -0.84135653     +0.53874749

                   Node   153.68353     +0.49143782     +0.72925467

e   1.0            Incl.  174.40182     +0.22496235     +0.42182789

From 92 observations 2007 Mar. 13-22.

Residuals in seconds of arc 

2007/                     070314 673  0.5+  0.2-    070317 246  0.5+  0.2-  

070313 E12  0.4+  0.3-    070314 673  0.3-  0.3+    070317 246  0.4+  0.5-  

070313 E12  0.2+  0.0     070314 703  0.1-  0.1+    070317 246  0.5+  1.0-  

070313 E12  0.2+  0.1-    070314 673  0.5+  0.4+    070317 246  0.3+  1.0-  

070313 E12  0.1+  0.0     070314 703  0.5-  0.9+    070317 246  0.0   0.7-  

070313 E12  0.3-  0.1-    070314 673 (2.0+  0.5+)   070317 246  0.2+  0.6-  

070314 473  0.1-  1.2+    070314 703  0.1-  0.3-    070317 349  0.2+  0.1+  

070314 473  0.1-  1.0+    070314 673  1.5+  0.0     070317 349  0.1+  0.0   

070314 595  0.2-  0.1+    070314 703  0.2-  0.0     070317 349  0.1+  0.1+  

070314 595  0.2-  0.3+    070314 711  0.3+  0.4-    070317 349  0.1+  0.0   

070314 473  0.2+  0.6+    070314 711  0.0   0.1-    070318 213  0.2+  0.2+  

070314 595  0.2-  0.1+    070314 711  0.0   0.0     070318 213  0.1+  0.2-  

070314 J95  0.2-  0.2+    070314 349  0.4-  0.3+    070318 213  0.2+  0.5-  

070314 473  0.0   0.8+    070314 349  0.2-  0.4+    070318 232  1.3-  0.3+  

070314 J95  0.3-  0.3+    070314 349  0.4-  0.4+    070318 232  1.0-  0.1+  

070314 J95  0.0   0.1+    070314 D35  0.1+  0.2-    070318 232  0.8-  0.6-  

070314 473  0.1-  0.6-    070314 D35  0.3-  0.1+    070318 844  0.1-  0.0   

070314 J95  0.0   0.4+    070314 D35  0.1-  0.1+    070318 844  0.1+  0.3-  

070314 J95  0.0   0.1+    070315 A77  0.8-  0.9-    070318 844  0.2-  0.3+  

070314 734  0.2-  0.7-    070315 A77  1.1+  0.3-    070318 349  0.2+  0.1-  

070314 734  0.2+  0.6-    070315 A77  0.1-  0.1-    070318 349  0.0   0.1-  

070314 734  0.3-  0.0     070315 A77  0.9+  0.3-    070318 349  0.0   0.4-  

070314 734  0.8-  0.3-    070315 A77  0.0   0.4+    070319 E12  0.3-  0.2-  

070314 734  0.6+  1.3+    070315 A77  1.5+  1.1+    070320 844  0.1+  0.3+  

070314 673  0.0   0.4-    070315 A77  0.8-  1.2+    070320 844  0.1+  0.1+  

070314 H06  0.2+  0.1+    070315 A77  1.2-  0.4-    070320 844  0.2-  0.0   

070314 H06  0.3+  0.1+    070315 A77  0.5-  0.3+    070320 844  0.3+  0.3-  

070314 H06  0.1-  0.2-    070315 704  0.5-  0.3-    070320 844  0.1-  0.4-  

070314 H06  0.1-  0.2-    070315 704  1.2-  0.4-    070322 300  0.0   0.9+  

